| time (UTC) | temp C | wind direction | speed KPH | gust KPH | rain 1hr cm | rain 24hr cm | rain mn cm | humidity % | barometer mb |
| 20260507161520 | 12 | 352 | 14.5 | 32.2 | 0.00 | 0.00 | 0.00 | 46 | 1004.8 |
| 20260507161018 | 12 | 350 | 9.7 | 33.8 | 0.00 | 0.00 | 0.00 | 47 | 1004.8 |
| 20260507160513 | 12 | 336 | 24.1 | 32.2 | 0.00 | 0.00 | 0.00 | 44 | 1005.1 |
| 20260507160010 | 12 | 333 | 20.9 | 43.5 | 0.00 | 0.00 | 0.00 | 46 | 1005.1 |
| 20260507155505 | 12 | 346 | 9.7 | 25.7 | 0.00 | 0.00 | 0.00 | 47 | 1005.1 |
| 20260507155003 | 12 | 42 | 4.8 | 14.5 | 0.00 | 0.00 | 0.00 | 54 | 1005.1 |
| 20260507154459 | 12 | 321 | 30.6 | 35.4 | 0.00 | 0.00 | 0.00 | 54 | 1005.2 |
| 20260507153956 | 12 | 47 | 4.8 | 20.9 | 0.00 | 0.00 | 0.00 | 56 | 1005.3 |
| 20260507153453 | 11 | 332 | 11.3 | 16.1 | 0.00 | 0.00 | 0.00 | 61 | 1005.4 |
| 20260507152949 | 12 | 308 | 1.6 | 3.2 | 0.00 | 0.00 | 0.00 | 57 | 1005.2 |
| 20260507152445 | 11 | 312 | 4.8 | 11.3 | 0.00 | 0.00 | 0.00 | 67 | 1005.4 |
| 20260507151941 | 10 | 302 | 11.3 | 20.9 | 0.00 | 0.00 | 0.00 | 68 | 1005.5 |
| 20260507151438 | 10 | 334 | 14.5 | 22.5 | 0.00 | 0.00 | 0.00 | 70 | 1005.6 |
| 20260507150935 | 9 | 335 | 4.8 | 9.7 | 0.00 | 0.00 | 0.00 | 78 | 1005.7 |
| 20260507150432 | 9 | 335 | 14.5 | 17.7 | 0.00 | 0.00 | 0.00 | 77 | 1005.8 |
| 20260507145928 | 9 | 335 | 8.0 | 14.5 | 0.00 | 0.00 | 0.00 | 77 | 1005.5 |
| 20260507145424 | 10 | 349 | 12.9 | 16.1 | 0.00 | 0.00 | 0.00 | 75 | 1005.7 |
| 20260507144921 | 10 | 329 | 11.3 | 16.1 | 0.00 | 0.00 | 0.00 | 73 | 1005.8 |
| 20260507144418 | 10 | 319 | 9.7 | 16.1 | 0.00 | 0.00 | 0.00 | 73 | 1005.6 |
| 20260507143915 | 10 | 3 | 12.9 | 20.9 | 0.00 | 0.00 | 0.00 | 73 | 1005.7 |
| 20260507143412 | 10 | 341 | 14.5 | 24.1 | 0.00 | 0.00 | 0.00 | 73 | 1005.6 |
| 20260507142909 | 10 | 322 | 25.7 | 32.2 | 0.00 | 0.00 | 0.00 | 73 | 1005.6 |
| 20260507142404 | 10 | 345 | 14.5 | 24.1 | 0.00 | 0.00 | 0.00 | 74 | 1005.3 |
| 20260507141902 | 10 | 336 | 12.9 | 16.1 | 0.00 | 0.00 | 0.00 | 74 | 1005.3 |
| 20260507141358 | 10 | 334 | 12.9 | 20.9 | 0.00 | 0.00 | 0.00 | 75 | 1005.5 |
| 20260507140855 | 10 | 328 | 14.5 | 17.7 | 0.00 | 0.00 | 0.00 | 75 | 1005.4 |
| 20260507140351 | 10 | 331 | 11.3 | 12.9 | 0.00 | 0.00 | 0.00 | 73 | 1005.7 |
| 20260507135849 | 10 | 323 | 11.3 | 17.7 | 0.00 | 0.00 | 0.00 | 71 | 1005.6 |
| 20260507135346 | 10 | 275 | 8.0 | 11.3 | 0.00 | 0.00 | 0.00 | 72 | 1005.3 |
| 20260507134843 | 11 | 274 | 11.3 | 12.9 | 0.00 | 0.00 | 0.00 | 74 | 1005.3 |
| 20260507134339 | 10 | 349 | 11.3 | 12.9 | 0.00 | 0.00 | 0.00 | 75 | 1005.5 |
| 20260507133835 | 10 | 329 | 9.7 | 14.5 | 0.00 | 0.00 | 0.00 | 76 | 1005.6 |
| 20260507133331 | 10 | 325 | 14.5 | 16.1 | 0.00 | 0.00 | 0.00 | 75 | 1005.7 |
| 20260507132830 | 10 | 325 | 9.7 | 14.5 | 0.00 | 0.00 | 0.00 | 75 | 1005.7 |
| 20260507132326 | 10 | 325 | 9.7 | 14.5 | 0.00 | 0.00 | 0.00 | 77 | 1005.6 |
| 20260507131823 | 10 | 39 | 11.3 | 12.9 | 0.00 | 0.00 | 0.00 | 77 | 1005.8 |
| 20260507131320 | 10 | 39 | 4.8 | 8.0 | 0.00 | 0.00 | 0.00 | 76 | 1005.5 |
| 20260507130816 | 10 | 39 | 6.4 | 9.7 | 0.00 | 0.00 | 0.00 | 75 | 1005.6 |
| 20260507130313 | 9 | 71 | 4.8 | 11.3 | 0.00 | 0.00 | 0.00 | 77 | 1006.0 |
| 20260507125812 | 10 | 36 | 0.0 | 3.2 | 0.00 | 0.00 | 0.00 | 78 | 1005.9 |
| 20260507125306 | 11 | 68 | 4.8 | 9.7 | 0.00 | 0.00 | 0.00 | 73 | 1005.7 |
| 20260507124801 | 11 | 59 | 1.6 | 3.2 | 0.00 | 0.00 | 0.00 | 73 | 1005.5 |
| 20260507124257 | 10 | 22 | 1.6 | 3.2 | 0.00 | 0.00 | 0.00 | 78 | 1005.6 |
| 20260507123756 | 10 | 22 | 1.6 | 3.2 | 0.00 | 0.00 | 0.00 | 77 | 1005.4 |
| 20260507123253 | 8 | 18 | 1.6 | 1.6 | 0.00 | 0.00 | 0.00 | 79 | 1005.4 |
| 20260507122748 | 9 | 17 | 1.6 | 3.2 | 0.00 | 0.00 | 0.00 | 79 | 1005.6 |
| 20260507122244 | 10 | 18 | 1.6 | 1.6 | 0.00 | 0.00 | 0.00 | 77 | 1005.4 |
| 20260507121740 | 10 | 18 | 0.0 | 3.2 | 0.00 | 0.00 | 0.00 | 76 | 1005.6 |
| 20260507121236 | 8 | 18 | 0.0 | 0.0 | 0.00 | 0.00 | 0.00 | 90 | 1005.8 |
| 20260507120732 | 7 | 18 | 1.6 | 1.6 | 0.00 | 0.00 | 0.00 | 92 | 1005.9 |
| 20260507120230 | 7 | 18 | 1.6 | 3.2 | 0.00 | 0.00 | 0.00 | 93 | 1005.9 |
| 20260507115726 | 7 | 18 | 1.6 | 1.6 | 0.00 | 0.00 | 0.00 | 95 | 1005.7 |
| 20260507115221 | 7 | 19 | 0.0 | 0.0 | 0.00 | 0.00 | 0.00 | 95 | 1006.0 |
| 20260507114716 | 6 | 18 | 0.0 | 1.6 | 0.00 | 0.00 | 0.00 | 95 | 1005.9 |
| 20260507114215 | 7 | 18 | 0.0 | 1.6 | 0.00 | 0.00 | 0.00 | 93 | 1005.8 |
| 20260507113711 | 7 | 18 | 0.0 | 1.6 | 0.00 | 0.00 | 0.00 | 94 | 1005.9 |
| 20260507113209 | 7 | 18 | 0.0 | 3.2 | 0.00 | 0.00 | 0.00 | 97 | 1005.7 |
| 20260507112706 | 6 | 18 | 0.0 | 1.6 | 0.00 | 0.00 | 0.00 | 99 | 1006.0 |
| 20260507112203 | 6 | 18 | 1.6 | 3.2 | 0.00 | 0.00 | 0.00 | 99 | 1005.7 |
| 20260507111701 | 5 | 18 | 1.6 | 3.2 | 0.00 | 0.00 | 0.00 | 99 | 1005.8 |
| 20260507111157 | 5 | 18 | 1.6 | 3.2 | 0.00 | 0.00 | 0.00 | 99 | 1005.9 |
| 20260507110653 | 4 | 19 | 0.0 | 3.2 | 0.00 | 0.00 | 0.00 | 99 | 1005.9 |
| 20260507110150 | 5 | 19 | 0.0 | 0.0 | 0.00 | 0.00 | 0.00 | 99 | 1005.7 |
| 20260507105647 | 4 | 19 | 1.6 | 1.6 | 0.00 | 0.00 | 0.00 | 99 | 1005.9 |
| 20260507105142 | 3 | 19 | 1.6 | 1.6 | 0.00 | 0.00 | 0.00 | 99 | 1005.8 |
| 20260507104640 | 4 | 19 | 1.6 | 3.2 | 0.00 | 0.00 | 0.00 | 99 | 1006.0 |
| 20260507104136 | 3 | 19 | 3.2 | 4.8 | 0.00 | 0.00 | 0.00 | 99 | 1005.9 |
| 20260507103632 | 3 | 19 | 3.2 | 3.2 | 0.00 | 0.00 | 0.00 | 99 | 1005.7 |
| 20260507103130 | 3 | 19 | 0.0 | 1.6 | 0.00 | 0.00 | 0.00 | 99 | 1005.6 |
| 20260507102626 | 3 | 19 | 1.6 | 1.6 | 0.00 | 0.00 | 0.00 | 99 | 1005.4 |
| 20260507102122 | 3 | 19 | 1.6 | 1.6 | 0.00 | 0.00 | 0.00 | 99 | 1005.5 |
| 20260507101618 | 3 | 19 | 0.0 | 3.2 | 0.00 | 0.00 | 0.00 | 99 | 1005.8 |
| 20260507101114 | 3 | 19 | 1.6 | 1.6 | 0.00 | 0.00 | 0.00 | 99 | 1005.6 |
| 20260507100612 | 3 | 19 | 0.0 | 0.0 | 0.00 | 0.00 | 0.00 | 99 | 1005.7 |
| 20260507100110 | 3 | 19 | 1.6 | 1.6 | 0.00 | 0.00 | 0.00 | 99 | 1005.6 |
| 20260507095607 | 3 | 19 | 0.0 | 1.6 | 0.00 | 0.00 | 0.00 | 99 | 1005.2 |
| 20260507095104 | 3 | 19 | 3.2 | 3.2 | 0.00 | 0.00 | 0.00 | 99 | 1005.6 |
| 20260507094600 | 3 | 19 | 0.0 | 0.0 | 0.00 | 0.00 | 0.00 | 99 | 1005.6 |
| 20260507094057 | 3 | 19 | 1.6 | 1.6 | 0.00 | 0.00 | 0.00 | 99 | 1005.7 |
| 20260507093554 | 3 | 19 | 1.6 | 1.6 | 0.00 | 0.00 | 0.00 | 99 | 1005.8 |
| 20260507093053 | 3 | 19 | 1.6 | 1.6 | 0.00 | 0.00 | 0.00 | 99 | 1005.7 |
| 20260507092549 | 3 | 19 | 0.0 | 0.0 | 0.00 | 0.00 | 0.00 | 99 | 1005.6 |
| 20260507092040 | 3 | 19 | 0.0 | 0.0 | 0.00 | 0.00 | 0.00 | 99 | 1005.5 |
| 20260507091537 | 3 | 19 | 1.6 | 1.6 | 0.00 | 0.00 | 0.00 | 99 | 1005.6 |
| 20260507091033 | 3 | 19 | 0.0 | 0.0 | 0.00 | 0.00 | 0.00 | 99 | 1005.4 |
| 20260507090529 | 3 | 19 | 1.6 | 1.6 | 0.00 | 0.00 | 0.00 | 99 | 1005.5 |
| 20260507090026 | 4 | 19 | 1.6 | 1.6 | 0.00 | 0.00 | 0.00 | 99 | 1005.5 |
| 20260507085523 | 5 | 19 | 0.0 | 1.6 | 0.00 | 0.00 | 0.00 | 99 | 1005.8 |
| 20260507085020 | 5 | 19 | 1.6 | 1.6 | 0.00 | 0.00 | 0.00 | 99 | 1005.3 |
| 20260507084516 | 4 | 19 | 0.0 | 1.6 | 0.00 | 0.00 | 0.00 | 99 | 1005.6 |
| 20260507084014 | 5 | 19 | 1.6 | 3.2 | 0.00 | 0.00 | 0.00 | 99 | 1005.2 |
| 20260507083510 | 5 | 19 | 1.6 | 3.2 | 0.00 | 0.00 | 0.00 | 99 | 1005.2 |
| 20260507083007 | 5 | 19 | 3.2 | 3.2 | 0.00 | 0.00 | 0.00 | 99 | 1005.5 |
| 20260507082503 | 5 | 19 | 0.0 | 1.6 | 0.00 | 0.00 | 0.00 | 99 | 1005.4 |
| 20260507081959 | 5 | 19 | 1.6 | 3.2 | 0.00 | 0.00 | 0.00 | 99 | 1005.3 |
| 20260507081455 | 5 | 19 | 1.6 | 1.6 | 0.00 | 0.00 | 0.00 | 99 | 1005.4 |
| 20260507080953 | 5 | 19 | 3.2 | 3.2 | 0.00 | 0.00 | 0.00 | 99 | 1005.3 |
| 20260507080448 | 6 | 19 | 1.6 | 3.2 | 0.00 | 0.00 | 0.00 | 99 | 1005.2 |
| 20260507075944 | 6 | 19 | 0.0 | 0.0 | 0.00 | 0.00 | 0.00 | 98 | 1005.4 |
| 20260507075441 | 6 | 19 | 0.0 | 1.6 | 0.00 | 0.00 | 0.00 | 97 | 1005.3 |
| 20260507074937 | 6 | 19 | 1.6 | 3.2 | 0.00 | 0.00 | 0.00 | 95 | 1005.1 |
| 20260507074434 | 6 | 19 | 1.6 | 3.2 | 0.00 | 0.00 | 0.00 | 95 | 1004.8 |
| 20260507073932 | 6 | 19 | 1.6 | 3.2 | 0.00 | 0.00 | 0.00 | 95 | 1004.6 |
| 20260507073428 | 7 | 19 | 0.0 | 1.6 | 0.00 | 0.00 | 0.00 | 95 | 1004.4 |
| 20260507072925 | 6 | 19 | 0.0 | 1.6 | 0.00 | 0.00 | 0.00 | 95 | 1004.5 |
| 20260507072422 | 6 | 19 | 1.6 | 3.2 | 0.00 | 0.00 | 0.00 | 96 | 1004.7 |
| 20260507071914 | 7 | 19 | 1.6 | 4.8 | 0.00 | 0.00 | 0.00 | 96 | 1004.6 |
| 20260507071410 | 7 | 19 | 1.6 | 3.2 | 0.00 | 0.00 | 0.00 | 95 | 1004.3 |
| 20260507070901 | 7 | 19 | 1.6 | 4.8 | 0.00 | 0.00 | 0.00 | 93 | 1004.5 |
| 20260507070359 | 7 | 19 | 6.4 | 9.7 | 0.00 | 0.00 | 0.00 | 93 | 1004.6 |
| 20260507065856 | 7 | 19 | 6.4 | 9.7 | 0.00 | 0.00 | 0.00 | 93 | 1004.6 |
| 20260507065352 | 7 | 19 | 4.8 | 4.8 | 0.00 | 0.00 | 0.00 | 92 | 1004.8 |
| 20260507064849 | 7 | 19 | 3.2 | 3.2 | 0.00 | 0.00 | 0.00 | 93 | 1004.8 |
| 20260507064348 | 7 | 19 | 3.2 | 3.2 | 0.00 | 0.00 | 0.00 | 93 | 1005.1 |
| 20260507063845 | 7 | 19 | 3.2 | 3.2 | 0.00 | 0.00 | 0.00 | 93 | 1004.8 |
| 20260507063342 | 7 | 20 | 4.8 | 4.8 | 0.00 | 0.00 | 0.00 | 93 | 1005.0 |
| 20260507062839 | 7 | 52 | 1.6 | 8.0 | 0.00 | 0.00 | 0.00 | 94 | 1004.6 |
| 20260507062335 | 7 | 49 | 3.2 | 8.0 | 0.00 | 0.00 | 0.00 | 94 | 1004.4 |
| 20260507061834 | 7 | 0 | 0.0 | 8.0 | 0.00 | 0.00 | 0.00 | 95 | 1004.6 |
| 20260507061331 | 7 | 0 | 0.0 | 1.6 | 0.00 | 0.00 | 0.00 | 96 | 1004.8 |
| 20260507060830 | 7 | 0 | 0.0 | 1.6 | 0.00 | 0.00 | 0.00 | 95 | 1004.7 |
| 20260507060326 | 7 | 0 | 3.2 | 3.2 | 0.00 | 0.00 | 0.00 | 95 | 1005.1 |
| 20260507055823 | 7 | 1 | 0.0 | 3.2 | 0.00 | 0.00 | 0.00 | 95 | 1004.7 |
| 20260507055318 | 7 | 0 | 3.2 | 3.2 | 0.00 | 0.00 | 0.00 | 95 | 1004.7 |
| 20260507054815 | 7 | 0 | 1.6 | 3.2 | 0.00 | 0.00 | 0.00 | 95 | 1004.5 |
| 20260507054311 | 7 | 1 | 0.0 | 1.6 | 0.00 | 0.00 | 0.00 | 95 | 1004.8 |
| 20260507053808 | 7 | 0 | 3.2 | 8.0 | 0.00 | 0.00 | 0.00 | 94 | 1004.6 |
| 20260507053306 | 7 | 1 | 3.2 | 4.8 | 0.00 | 0.00 | 0.00 | 94 | 1005.0 |
| 20260507052805 | 7 | 0 | 4.8 | 9.7 | 0.00 | 0.00 | 0.00 | 94 | 1004.7 |
| 20260507052301 | 7 | 0 | 8.0 | 9.7 | 0.00 | 0.00 | 0.00 | 94 | 1004.8 |
| 20260507051759 | 7 | 0 | 6.4 | 14.5 | 0.00 | 0.00 | 0.00 | 95 | 1004.5 |
| 20260507051256 | 7 | 1 | 8.0 | 11.3 | 0.00 | 0.00 | 0.00 | 94 | 1004.5 |
| 20260507050753 | 7 | 1 | 6.4 | 9.7 | 0.00 | 0.00 | 0.00 | 96 | 1004.6 |
| 20260507050249 | 7 | 1 | 4.8 | 8.0 | 0.00 | 0.00 | 0.00 | 96 | 1004.5 |
| 20260507045746 | 7 | 1 | 8.0 | 9.7 | 0.00 | 0.00 | 0.00 | 95 | 1004.4 |
| 20260507045242 | 7 | 1 | 9.7 | 11.3 | 0.00 | 0.00 | 0.00 | 96 | 1004.5 |
| 20260507044740 | 7 | 1 | 1.6 | 3.2 | 0.00 | 0.00 | 0.00 | 96 | 1004.5 |
| 20260507044236 | 7 | 1 | 1.6 | 3.2 | 0.00 | 0.00 | 0.00 | 96 | 1004.4 |
| 20260507043732 | 7 | 1 | 0.0 | 1.6 | 0.00 | 0.00 | 0.00 | 95 | 1004.3 |
| 20260507043229 | 7 | 1 | 0.0 | 3.2 | 0.00 | 0.00 | 0.00 | 95 | 1003.9 |
| 20260507042725 | 7 | 1 | 1.6 | 1.6 | 0.00 | 0.00 | 0.00 | 95 | 1003.6 |
| 20260507042220 | 7 | 1 | 4.8 | 12.9 | 0.00 | 0.00 | 0.00 | 94 | 1003.8 |
| 20260507041718 | 7 | 1 | 9.7 | 11.3 | 0.00 | 0.00 | 0.00 | 95 | 1003.7 |
| 20260507041214 | 7 | 1 | 8.0 | 14.5 | 0.00 | 0.00 | 0.00 | 94 | 1004.0 |
| 20260507040712 | 8 | 1 | 14.5 | 17.7 | 0.00 | 0.00 | 0.00 | 93 | 1004.4 |
| 20260507040207 | 7 | 2 | 11.3 | 17.7 | 0.00 | 0.00 | 0.00 | 95 | 1004.4 |
| 20260507035704 | 7 | 7 | 9.7 | 16.1 | 0.00 | 2.16 | 2.16 | 96 | 1004.5 |
| 20260507035159 | 7 | 7 | 9.7 | 14.5 | 0.00 | 2.16 | 2.16 | 95 | 1004.6 |
| 20260507034656 | 7 | 7 | 8.0 | 12.9 | 0.00 | 2.16 | 2.16 | 96 | 1004.7 |
| 20260507034154 | 7 | 7 | 11.3 | 14.5 | 0.00 | 2.16 | 2.16 | 96 | 1004.6 |
| 20260507033653 | 7 | 7 | 9.7 | 12.9 | 0.00 | 2.16 | 2.16 | 96 | 1004.6 |
| 20260507033149 | 7 | 6 | 11.3 | 12.9 | 0.00 | 2.16 | 2.16 | 95 | 1004.6 |
| 20260507032647 | 8 | 6 | 16.1 | 22.5 | 0.00 | 2.16 | 2.16 | 94 | 1004.4 |
| 20260507032142 | 8 | 2 | 17.7 | 35.4 | 0.00 | 2.16 | 2.16 | 93 | 1004.4 |
| 20260507031639 | 7 | 56 | 9.7 | 20.9 | 0.00 | 2.16 | 2.16 | 94 | 1004.5 |
| 20260507031136 | 8 | 60 | 6.4 | 11.3 | 0.18 | 2.16 | 2.16 | 95 | 1004.6 |
| 20260507030633 | 8 | 212 | 3.2 | 12.9 | 0.00 | 2.13 | 2.13 | 94 | 1004.7 |
| 20260507030131 | 8 | 212 | 4.8 | 17.7 | 0.00 | 2.13 | 2.13 | 95 | 1004.6 |
| 20260507025628 | 8 | 212 | 4.8 | 8.0 | 0.00 | 2.13 | 2.13 | 95 | 1004.9 |
| 20260507025124 | 8 | 212 | 8.0 | 11.3 | 0.00 | 2.13 | 2.13 | 97 | 1004.7 |
| 20260507024622 | 8 | 212 | 1.6 | 3.2 | 0.00 | 2.13 | 2.13 | 96 | 1004.8 |
| 20260507024119 | 8 | 212 | 4.8 | 8.0 | 0.00 | 2.13 | 2.13 | 96 | 1004.8 |
| 20260507023615 | 8 | 212 | 8.0 | 11.3 | 0.00 | 2.13 | 2.13 | 97 | 1004.6 |
| 20260507023113 | 8 | 212 | 6.4 | 20.9 | 0.00 | 2.13 | 2.13 | 96 | 1004.6 |
| 20260507022609 | 8 | 227 | 1.6 | 3.2 | 0.00 | 2.13 | 2.13 | 98 | 1004.6 |
| 20260507022105 | 9 | 221 | 4.8 | 4.8 | 0.00 | 2.13 | 2.13 | 99 | 1004.5 |
| 20260507021601 | 9 | 227 | 1.6 | 8.0 | 0.00 | 2.13 | 2.13 | 99 | 1004.6 |
| 20260507021057 | 9 | 219 | 1.6 | 8.0 | 0.13 | 2.13 | 2.13 | 99 | 1004.3 |
| 20260507020556 | 9 | 243 | 3.2 | 3.2 | 0.13 | 2.13 | 2.13 | 99 | 1004.4 |
| 20260507020051 | 9 | 243 | 1.6 | 1.6 | 0.18 | 2.11 | 2.11 | 99 | 1004.3 |
| 20260507015550 | 9 | 243 | 3.2 | 3.2 | 0.00 | 2.08 | 2.08 | 99 | 1004.4 |
| 20260507015047 | 10 | 243 | 1.6 | 3.2 | 0.00 | 2.08 | 2.08 | 99 | 1004.4 |
| 20260507014543 | 10 | 243 | 0.0 | 4.8 | 0.13 | 2.08 | 2.08 | 99 | 1004.4 |
| 20260507014033 | 10 | 243 | 0.0 | 0.0 | 0.18 | 2.06 | 2.06 | 99 | 1004.0 |
| 20260507013530 | 10 | 243 | 0.0 | 1.6 | 0.18 | 2.06 | 2.06 | 99 | 1003.9 |
| 20260507013027 | 10 | 243 | 1.6 | 3.2 | 0.18 | 2.03 | 2.03 | 99 | 1003.9 |
| 20260507012525 | 10 | 243 | 1.6 | 3.2 | 0.18 | 2.03 | 2.03 | 99 | 1003.9 |
| 20260507012021 | 10 | 243 | 1.6 | 1.6 | 0.00 | 2.01 | 2.01 | 99 | 1004.0 |
| 20260507011518 | 10 | 243 | 0.0 | 0.0 | 0.00 | 2.01 | 2.01 | 99 | 1003.8 |
| 20260507011008 | 10 | 243 | 0.0 | 1.6 | 0.13 | 2.01 | 2.01 | 98 | 1003.8 |
| 20260507010503 | 11 | 243 | 4.8 | 4.8 | 0.13 | 2.01 | 2.01 | 97 | 1003.6 |
| 20260507005959 | 11 | 243 | 3.2 | 4.8 | 0.00 | 1.98 | 1.98 | 97 | 1003.8 |
| 20260507005456 | 11 | 244 | 1.6 | 3.2 | 0.00 | 1.98 | 1.98 | 97 | 1003.7 |
| 20260507004947 | 11 | 244 | 4.8 | 8.0 | 0.00 | 1.98 | 1.98 | 98 | 1003.7 |
| 20260507004444 | 11 | 244 | 3.2 | 3.2 | 0.00 | 1.98 | 1.98 | 97 | 1003.4 |
| 20260507003942 | 11 | 243 | 6.4 | 8.0 | 0.00 | 1.98 | 1.98 | 98 | 1003.3 |
| 20260507003437 | 11 | 244 | 0.0 | 1.6 | 0.00 | 1.98 | 1.98 | 99 | 1003.2 |
| 20260507002932 | 11 | 244 | 1.6 | 3.2 | 0.00 | 1.98 | 1.98 | 99 | 1003.4 |
| 20260507002429 | 11 | 244 | 1.6 | 1.6 | 0.00 | 1.98 | 1.98 | 98 | 1003.3 |
| 20260507001926 | 11 | 244 | 1.6 | 4.8 | 0.00 | 1.98 | 1.98 | 98 | 1003.0 |
| 20260507001422 | 11 | 244 | 4.8 | 4.8 | 0.00 | 1.98 | 1.98 | 99 | 1002.7 |
| 20260507000920 | 11 | 244 | 0.0 | 4.8 | 0.00 | 1.98 | 1.98 | 99 | 1002.7 |
| 20260507000415 | 11 | 243 | 0.0 | 3.2 | 0.00 | 1.98 | 1.98 | 99 | 1002.7 |
| 20260506235911 | 11 | 243 | 0.0 | 3.2 | 0.00 | 1.98 | 1.98 | 99 | 1002.5 |
| 20260506235409 | 12 | 244 | 1.6 | 4.8 | 0.00 | 1.98 | 1.98 | 99 | 1002.6 |
| 20260506234904 | 12 | 244 | 1.6 | 4.8 | 0.00 | 1.98 | 1.98 | 99 | 1002.3 |
| 20260506234403 | 12 | 244 | 1.6 | 1.6 | 0.00 | 1.98 | 1.98 | 99 | 1002.4 |
| 20260506233900 | 12 | 244 | 3.2 | 3.2 | 0.00 | 1.98 | 1.98 | 99 | 1002.6 |
| 20260506233355 | 12 | 244 | 4.8 | 8.0 | 0.00 | 1.98 | 1.98 | 99 | 1002.3 |
| 20260506232852 | 12 | 244 | 4.8 | 9.7 | 0.00 | 1.98 | 1.98 | 98 | 1002.4 |
| 20260506232348 | 12 | 244 | 6.4 | 12.9 | 0.00 | 1.98 | 1.98 | 98 | 1002.2 |
| 20260506231844 | 12 | 244 | 8.0 | 14.5 | 0.00 | 1.98 | 1.98 | 98 | 1002.3 |
| 20260506231343 | 12 | 244 | 9.7 | 12.9 | 0.00 | 1.98 | 1.98 | 99 | 1002.2 |
| 20260506230840 | 13 | 244 | 8.0 | 9.7 | 0.00 | 1.98 | 1.98 | 99 | 1002.0 |
| 20260506230336 | 13 | 244 | 8.0 | 11.3 | 0.00 | 1.98 | 1.98 | 99 | 1002.0 |
| 20260506225832 | 13 | 244 | 8.0 | 9.7 | 0.00 | 1.98 | 1.98 | 99 | 1001.8 |
| 20260506225330 | 13 | 244 | 3.2 | 3.2 | 0.00 | 1.98 | 1.98 | 99 | 1001.7 |
| 20260506224826 | 14 | 244 | 0.0 | 0.0 | 0.00 | 1.98 | 1.98 | 99 | 1001.7 |
| 20260506224323 | 14 | 244 | 3.2 | 3.2 | 0.00 | 1.98 | 1.98 | 99 | 1001.8 |
| 20260506223820 | 14 | 244 | 4.8 | 8.0 | 0.00 | 1.98 | 1.98 | 99 | 1001.8 |
| 20260506223315 | 14 | 244 | 6.4 | 8.0 | 0.30 | 1.98 | 1.98 | 99 | 1001.7 |
| 20260506222813 | 15 | 243 | 4.8 | 4.8 | 1.50 | 1.98 | 1.98 | 99 | 1001.5 |
| 20260506222308 | 15 | 244 | 8.0 | 8.0 | 1.07 | 1.80 | 1.80 | 99 | 1001.7 |
| 20260506221806 | 15 | 244 | 1.6 | 1.6 | 0.89 | 1.68 | 1.68 | 99 | 1001.5 |
| 20260506221303 | 15 | 244 | 1.6 | 3.2 | 0.89 | 1.60 | 1.60 | 99 | 1001.4 |
| 20260506220801 | 15 | 244 | 4.8 | 9.7 | 0.71 | 1.52 | 1.52 | 99 | 1001.4 |
| 20260506220255 | 15 | 244 | 1.6 | 3.2 | 0.48 | 1.45 | 1.45 | 99 | 1001.4 |
| 20260506215752 | 15 | 244 | 1.6 | 4.8 | 0.36 | 1.42 | 1.42 | 99 | 1001.3 |
| 20260506215248 | 15 | 244 | 4.8 | 4.8 | 0.30 | 1.37 | 1.37 | 99 | 1001.4 |
| 20260506214744 | 15 | 244 | 0.0 | 4.8 | 0.30 | 1.35 | 1.35 | 99 | 1001.5 |
| 20260506214242 | 15 | 244 | 1.6 | 3.2 | 0.30 | 1.32 | 1.32 | 99 | 1001.6 |
| 20260506213740 | 15 | 243 | 1.6 | 3.2 | 0.43 | 1.30 | 1.30 | 99 | 1001.6 |
| 20260506213231 | 15 | 244 | 0.0 | 1.6 | 0.79 | 1.27 | 1.27 | 99 | 1001.5 |
| 20260506212728 | 15 | 244 | 1.6 | 1.6 | 0.43 | 1.19 | 1.19 | 99 | 1001.8 |
| 20260506212223 | 15 | 244 | 1.6 | 3.2 | 0.30 | 1.14 | 1.14 | 99 | 1001.7 |
| 20260506211714 | 15 | 244 | 0.0 | 3.2 | 0.36 | 1.14 | 1.14 | 99 | 1001.7 |
| 20260506211210 | 15 | 244 | 1.6 | 4.8 | 0.18 | 1.09 | 1.09 | 99 | 1001.7 |
| 20260506210707 | 15 | 244 | 4.8 | 4.8 | 0.00 | 1.07 | 1.07 | 99 | 1001.7 |
| 20260506210204 | 16 | 243 | 6.4 | 8.0 | 0.00 | 1.07 | 1.07 | 99 | 1001.7 |
| 20260506205701 | 16 | 244 | 0.0 | 3.2 | 0.13 | 1.07 | 1.07 | 99 | 1001.8 |
| 20260506205156 | 16 | 243 | 0.0 | 1.6 | 0.00 | 1.04 | 1.04 | 99 | 1001.8 |
| 20260506204654 | 16 | 243 | 0.0 | 1.6 | 0.18 | 1.04 | 1.04 | 99 | 1001.9 |
| 20260506204151 | 16 | 244 | 0.0 | 0.0 | 0.00 | 1.02 | 1.02 | 99 | 1002.1 |
| 20260506203649 | 15 | 244 | 3.2 | 4.8 | 0.00 | 1.02 | 1.02 | 99 | 1002.0 |
| 20260506203146 | 16 | 244 | 3.2 | 4.8 | 0.13 | 1.02 | 1.02 | 99 | 1002.1 |
| 20260506202644 | 16 | 244 | 1.6 | 4.8 | 0.13 | 1.02 | 1.02 | 99 | 1002.2 |
| 20260506202139 | 16 | 244 | 3.2 | 4.8 | 0.00 | 0.99 | 0.99 | 99 | 1002.3 |
| 20260506201637 | 16 | 244 | 1.6 | 1.6 | 0.00 | 0.99 | 0.99 | 99 | 1002.2 |
| 20260506201133 | 16 | 244 | 0.0 | 1.6 | 0.00 | 0.99 | 0.99 | 99 | 1002.2 |
| 20260506200630 | 15 | 243 | 1.6 | 1.6 | 0.18 | 0.99 | 0.99 | 99 | 1002.2 |
| 20260506200127 | 15 | 244 | 6.4 | 9.7 | 0.18 | 0.99 | 0.99 | 99 | 1002.5 |
| 20260506195623 | 15 | 244 | 1.6 | 8.0 | 0.00 | 0.97 | 0.97 | 99 | 1002.3 |
| 20260506195119 | 15 | 244 | 0.0 | 1.6 | 0.13 | 0.97 | 0.97 | 99 | 1002.4 |
| 20260506194617 | 15 | 244 | 0.0 | 1.6 | 0.00 | 0.94 | 0.94 | 99 | 1002.6 |
| 20260506194113 | 15 | 244 | 1.6 | 1.6 | 0.18 | 0.94 | 0.94 | 99 | 1002.7 |
| 20260506193611 | 15 | 244 | 1.6 | 3.2 | 0.18 | 0.94 | 0.94 | 99 | 1002.6 |
| 20260506193108 | 15 | 244 | 0.0 | 1.6 | 0.13 | 0.91 | 0.91 | 99 | 1002.7 |
| 20260506192605 | 15 | 244 | 1.6 | 3.2 | 0.13 | 0.91 | 0.91 | 99 | 1003.0 |
| 20260506192101 | 15 | 244 | 0.0 | 3.2 | 0.18 | 0.89 | 0.89 | 99 | 1003.1 |
| 20260506191557 | 15 | 244 | 1.6 | 3.2 | 0.18 | 0.89 | 0.89 | 99 | 1003.3 |
| 20260506191053 | 15 | 244 | 6.4 | 9.7 | 0.13 | 0.86 | 0.86 | 99 | 1003.0 |
| 20260506190551 | 15 | 243 | 1.6 | 4.8 | 0.18 | 0.86 | 0.86 | 99 | 1002.7 |
| 20260506190047 | 15 | 244 | 0.0 | 4.8 | 0.30 | 0.81 | 0.81 | 99 | 1003.0 |
| 20260506185544 | 15 | 244 | 4.8 | 4.8 | 0.18 | 0.76 | 0.76 | 99 | 1002.7 |
| 20260506185036 | 15 | 244 | 3.2 | 4.8 | 0.18 | 0.76 | 0.76 | 99 | 1003.0 |
| 20260506184533 | 15 | 243 | 3.2 | 4.8 | 0.13 | 0.74 | 0.74 | 99 | 1002.8 |
| 20260506184030 | 15 | 243 | 0.0 | 3.2 | 0.30 | 0.74 | 0.74 | 99 | 1003.0 |
| 20260506183526 | 15 | 243 | 1.6 | 1.6 | 0.36 | 0.71 | 0.71 | 99 | 1002.8 |
| 20260506183023 | 15 | 244 | 1.6 | 3.2 | 0.30 | 0.69 | 0.69 | 99 | 1003.1 |
| 20260506182520 | 15 | 244 | 4.8 | 4.8 | 0.30 | 0.66 | 0.66 | 99 | 1003.4 |
| 20260506182011 | 15 | 244 | 3.2 | 3.2 | 0.30 | 0.64 | 0.64 | 99 | 1003.2 |
| 20260506181509 | 15 | 244 | 0.0 | 1.6 | 0.30 | 0.61 | 0.61 | 99 | 1003.3 |
| 20260506181006 | 15 | 244 | 0.0 | 4.8 | 0.30 | 0.58 | 0.58 | 99 | 1003.7 |
| 20260506180502 | 15 | 243 | 1.6 | 3.2 | 0.30 | 0.56 | 0.56 | 99 | 1003.7 |
| 20260506175959 | 15 | 244 | 1.6 | 3.2 | 0.30 | 0.53 | 0.53 | 99 | 1003.8 |
| 20260506175455 | 15 | 244 | 4.8 | 4.8 | 0.30 | 0.51 | 0.51 | 99 | 1003.8 |
| 20260506174946 | 15 | 244 | 0.0 | 1.6 | 0.30 | 0.48 | 0.48 | 99 | 1003.8 |
| 20260506174444 | 15 | 244 | 0.0 | 1.6 | 0.30 | 0.46 | 0.46 | 99 | 1003.8 |
| 20260506173940 | 15 | 244 | 1.6 | 1.6 | 0.30 | 0.43 | 0.43 | 99 | 1004.1 |
| 20260506173438 | 15 | 244 | 0.0 | 1.6 | 0.48 | 0.41 | 0.41 | 99 | 1004.0 |
| 20260506172935 | 15 | 244 | 0.0 | 1.6 | 0.48 | 0.38 | 0.38 | 99 | 1003.9 |
| 20260506172432 | 15 | 244 | 0.0 | 1.6 | 0.30 | 0.33 | 0.33 | 99 | 1004.2 |
| 20260506171928 | 15 | 244 | 0.0 | 0.0 | 0.30 | 0.30 | 0.30 | 99 | 1004.3 |
| 20260506171425 | 15 | 244 | 0.0 | 0.0 | 0.30 | 0.28 | 0.28 | 99 | 1004.3 |
| 20260506170918 | 15 | 244 | 0.0 | 1.6 | 0.30 | 0.25 | 0.25 | 99 | 1004.5 |
| 20260506170413 | 15 | 244 | 0.0 | 1.6 | 0.30 | 0.23 | 0.23 | 99 | 1004.5 |
| 20260506165907 | 15 | 244 | 0.0 | 0.0 | 0.30 | 0.20 | 0.20 | 99 | 1004.1 |
| 20260506165405 | 15 | 244 | 0.0 | 1.6 | 0.13 | 0.18 | 0.18 | 99 | 1004.5 |
| 20260506164901 | 15 | 244 | 0.0 | 0.0 | 0.18 | 0.15 | 0.15 | 99 | 1004.4 |
| 20260506164357 | 15 | 244 | 1.6 | 1.6 | 0.30 | 0.15 | 0.15 | 99 | 1004.4 |
| 20260506163855 | 15 | 244 | 0.0 | 1.6 | 0.13 | 0.13 | 0.13 | 99 | 1004.4 |
| 20260506163349 | 15 | 244 | 3.2 | 4.8 | 0.00 | 0.10 | 0.10 | 98 | 1004.4 |
| 20260506162845 | 15 | 244 | 3.2 | 3.2 | 0.00 | 0.10 | 0.10 | 97 | 1004.6 |
| 20260506162343 | 15 | 244 | 1.6 | 3.2 | 0.18 | 0.10 | 0.10 | 97 | 1004.7 |